#timestamp,LO_Frequency,Hit 
1498215615.8,286046994.3,N
1498215635.6,286046992.1,N
1498215655.5,286046992.9,N
1498215675.3,286046993.1,N
1498215695.1,286046990.6,N
1498215715.8,286046990.3,N
1498215735.7,286046991.3,N
1498215755.5,286046991.3,N
1498215775.3,286046990.8,N
1498215795.2,286046989.0,N
1498215815.9,286046988.6,Y
1498215835.7,286046996.5,N
1498215855.6,286046998.8,N
1498215875.4,286046999.6,N
1498215895.2,286046996.6,N
1498215915.1,286046996.8,N
1498215916.0,286046996.8,N
1498215935.8,286046997.7,N
1498215955.6,286046997.6,N
1498215975.5,286046995.3,N
1498215995.3,286046995.4,N
1498216015.1,286046995.8,N
1498216035.9,286046995.7,N
1498216055.7,286046995.9,N
1498216075.5,286046996.3,N
1498216095.3,286046994.3,N
1498216115.2,286046994.2,N
1498216135.0,286046993.7,N
1498216135.9,286046993.7,N
1498216155.7,286046994.7,N
1498216175.6,286046992.3,N
1498216195.4,286046992.6,N
1498216215.2,286046992.1,N
1498216235.1,286046992.5,N
1498216236.0,286046992.5,N
1498216255.8,286046992.6,N
1498216275.6,286046992.4,N
1498216295.5,286046990.4,N
1498216315.3,286046993.1,N
1498216335.1,286046992.8,N
1498216355.8,286046990.7,N
1498216375.7,286046990.5,N
1498216395.5,286046990.8,N
1498216415.3,286046991.4,N
1498216435.2,286046991.4,N
1498216455.0,286046989.0,N
1498216455.9,286046989.0,N
1498216475.7,286046989.0,N
1498216495.6,286046986.9,Y
1498216515.4,286046996.6,N
1498216535.2,286046996.9,N
1498216555.1,286046997.8,N
1498216556.0,286046997.8,N
1498216575.8,286046997.9,N
1498216595.6,286046997.9,N
1498216615.5,286046995.4,N
1498216635.3,286046995.3,N
1498216655.1,286046996.2,N
1498216675.9,286046993.6,N
1498216695.7,286046993.5,N
1498216715.5,286046993.6,N
1498216735.4,286046993.9,N
1498216755.2,286046994.5,N
1498216775.0,286046993.6,N
1498216775.9,286046993.6,N
1498216795.7,286046994.8,N
1498216815.6,286046992.2,N
1498216835.4,286046992.7,N
1498216855.2,286046993.1,N
1498216875.1,286046990.1,N
1498216876.0,286046990.1,N
1498216895.8,286046991.4,N
1498216915.6,286046991.5,N
1498216935.5,286046989.4,N
1498216955.3,286046988.6,Y
1498216975.1,286046997.2,N
1498216995.9,286046996.5,N
1498217015.7,286046998.0,N
1498217035.5,286046998.0,N
1498217055.4,286046997.8,N
1498217075.2,286046998.0,N
1498217095.0,286046995.3,N
1498217095.9,286046995.3,N
1498217115.8,286046997.6,N
1498217135.6,286046995.0,N
1498217155.4,286046995.0,N
1498217175.3,286046994.9,N
1498217195.1,286046995.9,N
1498217196.0,286046995.9,N
1498217215.8,286046995.6,N
1498217235.6,286046996.2,N
1498217255.5,286046996.1,N
1498217275.3,286046993.7,N
1498217295.1,286046993.5,N
1498217315.9,286046994.6,N
1498217335.7,286046994.8,N
1498217355.5,286046994.7,N
1498217375.4,286046991.9,N
1498217395.2,286046992.3,N
1498217415.0,286046993.0,N
1498217415.9,286046993.0,N
1498217435.8,286046993.0,N
1498217455.6,286046992.5,N
1498217475.4,286046992.6,N
1498217495.3,286046992.6,N
1498217515.1,286046992.9,N
1498217516.0,286046992.9,N
1498217535.8,286046992.1,N
1498217555.6,286046990.1,N
1498217575.5,286046992.6,N
1498217595.3,286046991.9,N
1498217615.1,286046992.9,N
1498217635.9,286046993.1,N
1498217655.7,286046993.0,N
1498217675.5,286046990.6,N
1498217695.4,286046993.1,N
1498217715.2,286046990.2,N
1498217735.0,286046990.7,N
1498217735.9,286046990.7,N
1498217755.8,286046991.5,N
1498217775.6,286046989.8,N
1498217795.4,286046988.8,Y
1498217815.3,286046999.6,N
1498217835.1,286046999.2,N
1498217836.0,286046999.2,N
1498217855.8,286046996.7,N
1498217875.7,286046997.0,N
1498217895.5,286046996.5,N
1498217915.3,286046996.6,N
1498217935.1,286046996.8,N
1498217955.9,286046999.1,N
1498217975.7,286046998.9,N
1498217995.5,286046999.1,N
1498218015.4,286046996.6,N
1498218035.2,286046996.5,N
1498218055.0,286046999.5,N
1498218055.9,286046999.5,N
1498218075.8,286046998.9,N
1498218095.6,286046999.0,N
1498218115.4,286046996.6,N
1498218135.3,286046996.6,N
1498218155.1,286046996.7,N
1498218156.0,286046996.7,N
1498218175.8,286046997.1,N
1498218195.6,286046995.4,N
1498218215.5,286046997.0,N
1498218235.3,286046999.6,N
1498218255.1,286046999.6,N
1498218275.9,286046996.5,N
1498218295.7,286046996.6,N
1498218315.5,286046999.6,N
1498218335.4,286046996.6,N
1498218355.2,286046998.0,N
1498218375.0,286046995.4,N
1498218375.9,286046995.4,N
1498218395.8,286046995.3,N
1498218415.6,286046995.5,N
1498218435.4,286046998.0,N
1498218455.3,286046995.0,N
1498218475.1,286046996.1,N
1498218476.0,286046996.1,N
1498218495.8,286046995.1,N
1498218515.7,286046995.3,N
1498218535.5,286046995.6,N
1498218555.3,286046995.2,N
1498218575.2,286046995.3,N
1498218595.9,286046993.4,N
1498218615.7,286046996.3,N
1498218635.6,286046995.6,N
1498218655.4,286046995.1,N
1498218675.2,286046996.1,N
1498218695.0,286046996.0,N
1498218695.9,286046996.0,N
1498218715.8,286046997.6,N
1498218735.6,286046997.9,N
1498218755.4,286046995.6,N
1498218775.3,286046996.1,N
1498218795.2,286046993.5,N
1498218815.0,286046993.6,N
1498218815.9,286046993.6,N
1498218835.7,286046993.4,N
1498218855.6,286046995.9,N
1498218875.4,286046993.4,N
1498218895.2,286046993.3,N
1498218915.1,286046993.9,N
1498218916.0,286046993.9,N
1498218935.8,286046994.5,N
1498218955.6,286046994.0,N
1498218975.5,286046994.6,N
1498218995.3,286046994.3,N
1498219015.1,286046993.9,N
1498219035.8,286046994.5,N
1498219055.7,286046994.2,N
1498219075.5,286046991.7,N
1498219095.3,286046992.0,N
1498219115.2,286046994.7,N
1498219135.9,286046992.9,N
1498219155.7,286046992.9,N
1498219175.6,286046992.3,N
1498219195.4,286046990.3,N
